RH
83 91 93 90 92 96 96 99 97 92 82 87 93 85 81 90 92 80 73 72 73 75 58 61 66 83 96 97 97 97 98 100 99 98 95 95 94 94
91 93 91 89 87 93 94 95 98 98 93 86 89 90 87 91 89 86 75 64 66 86 73 48 43 56 84 77 64 87 93 90 90 90 92 93 93 92
87 88 84 80 74 84 91 94 91 96 98 92 96 96 97 93 91 84 74 64 68 88 94 88 85 77 73 90 94 88 91 92 92 92 90 89 87 87
86 86 84 80 71 78 84 90 87 86 95 98 99 96 92 87 86 78 65 54 61 58 61 85 82 84 88 86 78 81 78 82 84 89 91 90 90 89
88 85 82 81 69 68 72 79 77 72 76 98 99 95 88 86 76 68 61 52 51 46 38 36 48 80 93 91 85 72 86 86 84 92 94 92 90 90
79 85 81 79 70 65 61 64 68 60 58 78 89 97 91 87 78 65 54 48 50 48 39 46 63 85 85 82 68 66 61 72 92 92 88 88 89 90
61 74 78 75 66 63 52 41 44 51 48 54 74 87 84 79 75 61 54 49 55 55 43 46 54 56 45 36 34 37 52 90 94 92 92 92 92 89
54 55 61 65 61 65 55 48 38 42 49 55 57 64 58 56 54 54 55 54 56 64 51 45 50 53 44 36 51 87 94 94 98 93 75 79 88 94
54 53 55 57 56 67 64 66 64 70 76 58 56 52 51 44 49 54 58 54 47 45 50 51 52 55 43 46 84 97 96 96 92 93 87 65 89 92
63 55 52 52 54 63 69 66 59 54 48 47 51 50 54 50 50 47 49 50 49 48 57 58 54 53 45 65 91 96 95 83 72 69 51 77 94 91
66 61 56 54 53 58 72 73 65 54 49 46 43 45 46 51 51 54 53 53 53 53 66 57 57 52 44 58 90 92 81 72 65 56 73 96 96 96
66 64 61 57 55 57 64 73 73 59 52 55 54 55 63 64 59 51 46 48 50 58 56 58 61 50 50 52 73 89 84 74 59 54 78 98 94 88
72 70 67 64 60 58 60 65 66 60 56 56 56 63 67 61 57 50 46 47 50 44 54 59 62 60 61 60 51 53 55 54 50 60 73 69 66 87
79 74 74 73 69 64 70 65 62 73 67 65 67 72 71 65 57 58 58 58 57 54 56 63 62 61 67 72 67 58 54 50 58 66 75 68 62 58
81 79 78 82 84 79 70 78 80 92 85 75 77 77 68 56 62 69 70 72 71 65 66 69 72 72 79 85 78 75 90 57 63 72 70 66 59 60
79 79 77 78 92 91 84 74 96 96 90 85 82 75 77 76 71 69 76 81 83 79 74 71 74 87 100 100 100 98 81 86 61 62 71 67 59 61
94 91 87 84 91 95 93 88 89 100 100 93 92 88 81 79 79 77 84 87 88 79 80 84 83 84 86 89 89 70 73 80 73 79 79 78 66 63
100 100 99 99 98 98 99 98 95 100 100 100 97 95 94 84 84 87 91 94 94 91 88 84 88 88 85 64 62 67 82 87 73 71 75 94 93 72
100 100 100 100 100 100 100 100 100 100 100 100 100 100 99 98 97 94 94 94 97 95 93 90 91 93 95 92 64 92 100 80 78 79 77 86 96 75
99 100 100 100 99 100 100 100 100 100 100 100 100 100 99 99 99 99 98 98 97 95 94 96 97 92 91 90 91 76 74 80 79 88 92 86 92 81
98 100 100 100 100 100 100 100 100 100 100 100 100 100 99 99 99 98 98 99 98 97 97 97 93 90 89 96 100 90 66 68 75 90 94 100 100 94
100 100 100 100 100 100 100 100 100 100 100 100 99 99 99 98 98 98 98 98 98 96 96 96 97 97 98 93 94 91 87 70 66 66 71 95 100 95
100 100 100 100 99 100 100 100 100 99 100 100 99 99 98 98 98 98 98 98 97 97 96 96 97 97 92 86 88 91 87 80 79 74 59 67 76 89
Wind_Speed
11 13 14 13 13 12 12 10 6 3 5 2 3 7 16 14 13 11 12 14 15 15 14 15 16 15 14 14 16 16 16 13 11 11 10 8 8 7
14 14 14 13 14 14 13 11 12 9 4 4 8 13 12 10 10 11 10 10 12 11 11 10 10 11 12 12 13 13 13 11 11 11 10 7 6 6
14 14 14 13 15 14 13 12 11 10 6 8 11 12 10 8 9 10 9 8 8 9 9 9 9 10 10 11 12 11 12 11 10 9 8 8 8 8
16 15 15 13 14 13 13 13 13 11 8 9 8 10 8 8 9 8 7 7 7 6 7 8 9 8 9 9 9 9 10 10 9 9 10 9 8 7
18 17 17 15 15 14 13 13 13 12 12 11 7 10 10 10 8 8 7 5 5 5 6 5 5 7 7 7 7 7 7 8 7 8 7 7 7 7
19 19 17 17 16 14 14 13 13 13 12 12 12 12 11 10 9 8 8 7 6 5 4 3 2 4 5 4 4 3 5 6 7 6 5 5 6 5
22 21 20 18 17 15 14 12 12 13 12 11 11 7 9 9 7 5 5 6 7 6 4 3 2 2 2 3 4 5 2 5 4 4 5 5 6 7
26 23 21 20 19 17 16 14 13 13 13 10 9 7 12 11 10 9 7 2 2 4 4 5 5 5 5 6 1 4 5 2 3 2 4 7 8 8
27 25 24 23 21 20 18 15 13 12 12 13 14 14 11 9 8 8 8 5 5 5 5 5 7 7 5 2 4 4 1 1 2 7 9 8 9 9
26 26 25 25 23 21 20 20 19 17 16 15 15 13 13 11 9 7 6 7 7 8 5 3 4 5 5 4 7 5 4 2 5 10 11 10 8 9
24 25 26 27 25 21 22 25 23 22 17 17 14 12 12 12 11 10 7 5 3 4 5 4 3 4 5 7 11 8 6 7 10 12 12 6 8 10
23 23 24 27 26 23 25 27 26 28 20 17 14 11 10 10 11 11 10 9 6 3 6 5 3 2 2 4 11 13 12 11 11 15 8 7 10 15
22 24 23 21 24 26 25 29 31 27 20 21 18 16 15 14 13 10 10 12 11 9 6 6 3 2 2 4 4 8 10 9 15 12 8 8 13 16
22 23 22 20 19 20 25 28 28 24 21 20 21 22 20 19 17 13 11 10 10 9 8 9 4 6 2 3 4 4 6 12 10 16 7 16 18 21
18 20 22 22 20 19 19 25 26 24 25 21 22 24 25 22 16 14 13 12 10 9 10 11 11 8 8 6 4 10 10 8 16 5 17 18 24 24
14 15 17 19 20 19 18 19 25 29 29 26 23 23 21 19 18 17 15 13 10 9 10 10 11 10 11 11 12 15 15 8 12 18 21 23 24 23
16 16 16 17 18 19 19 18 18 25 23 25 22 21 20 18 18 17 17 13 10 4 6 8 8 9 11 13 11 17 16 15 16 18 22 26 26 23
16 17 18 19 19 19 18 19 21 24 26 27 26 25 22 22 21 18 18 16 14 11 9 9 9 6 6 8 12 18 16 13 13 20 22 22 21 25
15 15 17 17 18 19 20 20 20 24 25 28 27 27 26 25 20 21 21 18 15 11 10 10 9 5 1 2 5 10 13 13 22 23 21 20 24 32
14 16 17 19 20 19 20 21 22 22 24 27 25 25 27 25 22 22 22 18 16 14 13 14 13 12 7 3 3 9 12 16 18 22 25 25 25 28
18 18 19 20 20 20 21 21 21 22 23 24 24 23 24 24 21 22 23 21 18 16 13 15 17 10 9 7 5 10 19 13 15 20 23 19 16 12
17 17 19 20 19 18 20 20 20 21 21 23 22 23 23 25 22 23 23 20 19 19 15 14 11 12 11 9 11 14 18 22 18 16 13 15 14 4
20 20 20 19 19 17 16 18 19 20 21 21 21 22 23 22 23 23 23 21 19 17 15 13 14 13 11 10 10 14 18 21 19 22 13 8 13 16
Wind_Direction
280 279 279 285 283 280 279 273 274 304 305 261 287 322 333 335 336 356 1 359 14 27 28 32 38 57 68 70 74 80 83 86 92 92 84 81 82 77
280 280 281 283 283 282 281 273 260 258 273 289 294 308 314 325 328 331 349 9 11 23 27 34 47 56 58 60 70 77 83 86 82 80 86 84 78 75
283 282 283 289 292 288 281 273 264 252 262 285 291 306 307 305 318 320 325 348 18 36 32 34 40 48 56 62 68 70 69 67 69 74 76 68 59 52
279 275 277 283 286 287 283 277 274 264 251 276 284 297 302 307 308 307 325 330 342 8 30 32 40 49 54 63 71 76 63 53 50 49 50 53 55 56
273 275 279 281 283 282 276 269 267 267 257 252 278 283 287 293 296 294 292 297 311 322 333 352 36 54 75 74 76 82 64 55 56 71 72 56 43 34
263 262 264 267 275 281 281 278 276 273 271 265 272 271 271 272 276 277 280 287 287 302 338 1 117 93 93 82 75 66 43 58 76 73 49 32 19 8
264 263 264 265 266 264 260 262 263 259 261 260 264 271 279 280 265 265 271 277 280 270 303 289 241 258 325 338 327 321 7 81 76 48 21 0 349 340
264 263 262 259 257 254 255 258 261 249 249 251 251 241 257 256 256 254 261 279 290 250 275 261 255 249 275 316 17 119 130 69 60 32 340 328 321 317
265 265 264 260 259 251 247 248 244 240 243 252 252 255 267 269 245 229 233 239 255 272 299 268 235 235 248 265 143 156 150 147 323 343 338 330 327 324
266 266 264 265 262 256 250 248 247 246 244 248 256 263 260 257 236 233 233 233 250 261 267 273 267 256 253 211 170 199 215 244 316 334 331 331 332 324
269 265 262 263 263 257 250 248 251 251 249 251 252 250 243 231 221 221 213 205 247 250 227 242 256 272 259 225 202 219 233 277 308 322 324 328 324 318
276 272 267 264 262 253 242 245 247 253 246 237 234 232 223 216 221 224 221 203 202 257 222 224 232 251 280 240 225 240 259 272 293 317 308 304 312 311
276 280 279 275 268 261 247 245 246 257 253 241 234 224 219 218 221 221 222 220 210 230 222 212 216 231 273 297 274 252 263 276 304 308 296 309 319 316
277 284 286 286 279 270 257 249 252 248 245 235 233 231 228 225 225 226 230 232 230 236 230 225 223 201 198 282 277 297 270 305 298 312 288 315 318 317
283 289 291 287 279 271 261 251 241 226 230 221 227 235 240 244 240 228 226 230 239 241 238 241 249 245 236 220 284 283 320 303 308 287 321 319 323 320
299 296 293 288 280 275 266 255 233 229 225 225 227 246 250 236 227 225 226 229 235 246 247 243 242 237 241 257 265 279 289 285 291 306 309 313 318 320
299 291 289 288 277 270 264 258 246 231 219 229 230 234 238 230 222 219 220 218 220 217 229 220 230 244 255 264 275 281 285 284 298 306 309 313 314 321
292 272 269 272 269 267 262 258 247 229 226 227 228 230 230 224 222 214 216 219 221 227 233 224 227 257 278 283 265 268 280 288 312 314 311 307 303 320
283 276 265 264 265 263 256 248 236 237 231 224 224 222 220 219 201 211 213 215 222 230 230 222 216 205 163 260 302 252 272 299 311 311 313 303 295 312
294 286 276 275 270 263 260 252 252 246 233 227 220 216 214 208 196 199 199 198 205 217 223 221 216 213 185 197 284 275 290 296 302 303 303 311 307 308
301 294 291 283 277 272 270 264 256 250 243 230 225 218 211 204 201 197 200 204 202 199 203 212 229 241 235 249 268 282 307 317 310 298 299 300 304 300
300 298 298 299 293 286 278 273 261 255 247 235 228 222 214 208 200 195 198 193 195 201 209 230 217 205 206 235 263 287 304 326 329 322 314 263 257 284
302 299 298 296 299 296 287 275 264 255 252 242 231 223 216 206 209 205 200 196 187 189 199 199 190 197 220 243 270 292 309 320 324 332 344 354 325 295